When you browse on this site, cookies collect data to enhance your experience and personalize the content and advertising you see.
Visit our Privacy Policy to learn more. By continuing to use the site, you agree to this use of cookies and data.
  • In Romania
  • List of Countries
  • For 7 days
  • Water Temperature
  • Weather Map
  • Weather Widgets
  • user-avatar
    Login

    Hourly Weather Florianópolis

    Today, 23 February, Sunday

    Time Temperature Precipitation Wind Pressure Humidity
    00:00 +18°C° 0 mm 3 mps 764 mmHg 83%
    01:00 +18°C° 0.1 mm 3 mps 764 mmHg 84%
    02:00 +18°C° 0.1 mm 2 mps 764 mmHg 85%
    03:00 +18°C° 0 mm 2 mps 764 mmHg 87%
    04:00 +18°C° 0 mm 2 mps 764 mmHg 86%
    05:00 +18°C° 0 mm 2 mps 764 mmHg 85%
    06:00 +18°C° 0 mm 2 mps 764 mmHg 84%
    07:00 +20°C° 0 mm 2 mps 764 mmHg 75%
    08:00 +23°C° 0 mm 1 mps 764 mmHg 66%
    09:00 +25°C° 0 mm 1 mps 765 mmHg 57%
    10:00 +26°C° 0 mm 2 mps 765 mmHg 55%
    11:00 +26°C° 0 mm 2 mps 764 mmHg 54%
    12:00 +27°C° 0 mm 2 mps 764 mmHg 52%
    13:00 +27°C° 0 mm 3 mps 764 mmHg 56%
    14:00 +26°C° 0 mm 3 mps 763 mmHg 59%
    15:00 +26°C° 0 mm 3 mps 763 mmHg 62%
    16:00 +25°C° 0 mm 3 mps 763 mmHg 65%
    17:00 +25°C° 0 mm 2 mps 763 mmHg 68%
    18:00 +24°C° 0 mm 2 mps 762 mmHg 71%
    19:00 +24°C° 0 mm 2 mps 763 mmHg 72%
    20:00 +23°C° 0 mm 2 mps 763 mmHg 72%
    21:00 +23°C° 0 mm 2 mps 763 mmHg 73%
    22:00 +23°C° 0 mm 2 mps 763 mmHg 73%
    23:00 +23°C° 0 mm 2 mps 763 mmHg 73%

    Tomorrow, 24 February, Monday

    Time Temperature Precipitation Wind Pressure Humidity
    00:00 +21°C° 0 mm 2 mps 763 mmHg 73%
    01:00 +21°C° 0 mm 2 mps 762 mmHg 73%
    02:00 +21°C° 0 mm 2 mps 762 mmHg 73%
    03:00 +21°C° 0 mm 2 mps 761 mmHg 72%
    04:00 +21°C° 0 mm 2 mps 761 mmHg 75%
    05:00 +20°C° 0 mm 2 mps 761 mmHg 77%
    06:00 +20°C° 0 mm 2 mps 761 mmHg 79%
    07:00 +21°C° 0 mm 2 mps 762 mmHg 72%
    08:00 +24°C° 0 mm 2 mps 762 mmHg 65%
    09:00 +26°C° 0 mm 2 mps 762 mmHg 57%
    10:00 +27°C° 0 mm 3 mps 762 mmHg 55%
    11:00 +29°C° 0 mm 4 mps 761 mmHg 52%
    12:00 +30°C° 0 mm 4 mps 761 mmHg 49%
    13:00 +30°C° 0 mm 4 mps 760 mmHg 50%
    14:00 +30°C° 0 mm 5 mps 759 mmHg 51%
    15:00 +30°C° 0 mm 5 mps 759 mmHg 52%
    16:00 +29°C° 0 mm 5 mps 759 mmHg 57%
    17:00 +28°C° 0 mm 5 mps 759 mmHg 62%
    18:00 +27°C° 0 mm 5 mps 758 mmHg 68%
    19:00 +26°C° 0 mm 4 mps 759 mmHg 72%
    20:00 +25°C° 0 mm 4 mps 759 mmHg 77%
    21:00 +23°C° 0 mm 4 mps 760 mmHg 82%
    22:00 +23°C° 0.1 mm 4 mps 760 mmHg 84%
    23:00 +23°C° 0.1 mm 4 mps 760 mmHg 85%

    Day after tomorrow, 25 February, Tuesday

    Time Temperature Precipitation Wind Pressure Humidity
    00:00 +25°C° 0.1 mm 4 mps 759 mmHg 87%
    01:00 +25°C° 0.2 mm 3 mps 759 mmHg 88%
    02:00 +25°C° 0.2 mm 3 mps 759 mmHg 89%
    03:00 +24°C° 0.2 mm 3 mps 758 mmHg 91%
    04:00 +24°C° 0.1 mm 3 mps 758 mmHg 91%
    05:00 +24°C° 0.1 mm 3 mps 758 mmHg 92%
    06:00 +24°C° 0.1 mm 2 mps 758 mmHg 93%
    07:00 +25°C° 0 mm 2 mps 759 mmHg 89%
    08:00 +26°C° 0 mm 2 mps 759 mmHg 85%
    09:00 +27°C° 0 mm 2 mps 759 mmHg 81%
    10:00 +28°C° 0 mm 2 mps 759 mmHg 74%
    11:00 +30°C° 0 mm 3 mps 758 mmHg 68%
    12:00 +31°C° 0 mm 3 mps 758 mmHg 61%
    13:00 +32°C° 0 mm 4 mps 757 mmHg 62%
    14:00 +33°C° 0 mm 4 mps 757 mmHg 63%
    15:00 +33°C° 0 mm 4 mps 756 mmHg 64%
    16:00 +30°C° 0.1 mm 4 mps 756 mmHg 72%
    17:00 +29°C° 0.1 mm 4 mps 756 mmHg 80%
    18:00 +27°C° 0.1 mm 4 mps 755 mmHg 88%
    19:00 +27°C° 0.4 mm 4 mps 756 mmHg 90%
    20:00 +27°C° 0.4 mm 3 mps 756 mmHg 92%
    21:00 +26°C° 0.4 mm 3 mps 757 mmHg 94%
    22:00 +26°C° 0.4 mm 3 mps 756 mmHg 94%
    23:00 +26°C° 0.4 mm 4 mps 756 mmHg 95%

    26 February, Wednesday

    Time Temperature Precipitation Wind Pressure Humidity
    00:00 +26°C° 0.4 mm 4 mps 756 mmHg 95%
    01:00 +26°C° 0.1 mm 4 mps 755 mmHg 94%
    02:00 +25°C° 0.1 mm 3 mps 754 mmHg 94%
    03:00 +25°C° 0.1 mm 3 mps 754 mmHg 93%
    04:00 +25°C° 2.2 mm 2 mps 753 mmHg 94%
    05:00 +25°C° 2.2 mm 2 mps 753 mmHg 94%
    06:00 +25°C° 2.2 mm 1 mps 753 mmHg 94%
    07:00 +25°C° 2.7 mm 1 mps 753 mmHg 95%
    08:00 +25°C° 2.7 mm 1 mps 753 mmHg 95%
    09:00 +25°C° 2.7 mm 1 mps 753 mmHg 95%
    10:00 +26°C° 0.1 mm 2 mps 753 mmHg 86%
    11:00 +28°C° 0.1 mm 3 mps 753 mmHg 77%
    12:00 +30°C° 0.1 mm 3 mps 753 mmHg 67%
    13:00 +29°C° 0.3 mm 4 mps 753 mmHg 71%
    14:00 +29°C° 0.3 mm 6 mps 753 mmHg 75%
    15:00 +28°C° 0.3 mm 7 mps 753 mmHg 78%
    16:00 +27°C° 0.2 mm 7 mps 753 mmHg 79%
    17:00 +26°C° 0.2 mm 7 mps 754 mmHg 79%
    18:00 +24°C° 0.2 mm 7 mps 754 mmHg 79%
    19:00 +23°C° 0 mm 7 mps 755 mmHg 79%
    20:00 +22°C° 0 mm 7 mps 756 mmHg 79%
    21:00 +21°C° 0 mm 8 mps 757 mmHg 78%
    22:00 +21°C° 0 mm 7 mps 757 mmHg 79%
    23:00 +20°C° 0 mm 6 mps 758 mmHg 80%

    27 February, Thursday

    Time Temperature Precipitation Wind Pressure Humidity
    00:00 +20°C° 0 mm 6 mps 758 mmHg 81%
    01:00 +20°C° 0 mm 5 mps 758 mmHg 81%
    02:00 +19°C° 0 mm 4 mps 758 mmHg 82%
    03:00 +19°C° 0 mm 3 mps 758 mmHg 83%
    04:00 +19°C° 0 mm 3 mps 758 mmHg 84%
    05:00 +19°C° 0 mm 3 mps 758 mmHg 84%
    06:00 +18°C° 0 mm 2 mps 759 mmHg 84%
    07:00 +20°C° 0 mm 2 mps 759 mmHg 75%
    08:00 +23°C° 0 mm 1 mps 759 mmHg 65%
    09:00 +26°C° 0 mm 1 mps 759 mmHg 55%
    10:00 +27°C° 0 mm 1 mps 759 mmHg 51%
    11:00 +28°C° 0 mm 2 mps 759 mmHg 47%
    12:00 +29°C° 0 mm 3 mps 759 mmHg 43%
    13:00 +28°C° 0 mm 3 mps 759 mmHg 49%
    14:00 +27°C° 0 mm 4 mps 759 mmHg 55%
    15:00 +26°C° 0 mm 4 mps 758 mmHg 61%
    16:00 +25°C° 0 mm 4 mps 758 mmHg 63%
    17:00 +25°C° 0 mm 4 mps 759 mmHg 65%
    18:00 +23°C° 0 mm 4 mps 759 mmHg 67%
    19:00 +23°C° 0 mm 4 mps 759 mmHg 70%
    20:00 +22°C° 0 mm 4 mps 760 mmHg 74%
    21:00 +21°C° 0 mm 4 mps 761 mmHg 77%
    22:00 +21°C° 0 mm 3 mps 761 mmHg 78%
    23:00 +21°C° 0 mm 2 mps 761 mmHg 78%

    28 February, Friday

    Time Temperature Precipitation Wind Pressure Humidity
    00:00 +21°C° 0 mm 2 mps 761 mmHg 78%
    01:00 +20°C° 0.1 mm 2 mps 761 mmHg 80%
    02:00 +21°C° 0.1 mm 1 mps 761 mmHg 82%
    03:00 +21°C° 0.1 mm 1 mps 760 mmHg 84%
    04:00 +20°C° 0 mm 1 mps 761 mmHg 84%
    05:00 +20°C° 0 mm 1 mps 761 mmHg 84%
    06:00 +20°C° 0 mm 1 mps 761 mmHg 85%
    07:00 +22°C° 0 mm 1 mps 761 mmHg 78%
    08:00 +24°C° 0 mm 1 mps 762 mmHg 71%
    09:00 +25°C° 0 mm 1 mps 762 mmHg 64%
    10:00 +26°C° 0 mm 1 mps 762 mmHg 63%
    11:00 +27°C° 0 mm 2 mps 762 mmHg 62%
    12:00 +27°C° 0 mm 2 mps 762 mmHg 60%
    13:00 +27°C° 0 mm 3 mps 761 mmHg 59%
    14:00 +28°C° 0 mm 3 mps 761 mmHg 58%
    15:00 +28°C° 0 mm 3 mps 760 mmHg 57%
    16:00 +27°C° 0 mm 3 mps 760 mmHg 61%
    17:00 +27°C° 0 mm 4 mps 760 mmHg 64%
    18:00 +26°C° 0 mm 4 mps 760 mmHg 67%
    19:00 +25°C° 0.1 mm 4 mps 761 mmHg 73%
    20:00 +23°C° 0.1 mm 4 mps 761 mmHg 78%
    21:00 +24°C° 0.1 mm 3 mps 762 mmHg 83%
    22:00 +24°C° 0.2 mm 3 mps 762 mmHg 85%
    23:00 +22°C° 0.2 mm 3 mps 762 mmHg 87%
    Show more